Address 0x16e75b7b8bea3787da601ba8291fc601f31c800c 3

 
Txn Hash
Block
From
To
Value [Txn Fee]
0xa408273e5c91c8136554b1553463c5bcf0bb1aba6fc4107dfdcd90b116bf3eec22950752021-10-17 7:33:381 hr 47 mins ago0x16e75b7b8bea3787da601ba8291fc601f31c800cOUT SushiSwap: Router0 ETH0.000922507311 ETH
0x1c39c189e4179f2fb3ff80392e41f995be3f9427da964c2d1c55d423bfd8738f22949212021-10-17 7:28:321 hr 52 mins ago0x16e75b7b8bea3787da601ba8291fc601f31c800cOUT 0x3b6067d4caa8a14c63fdbe6318f27a0bbc9f92370.82 ETH0.001197570121 ETH
0x18dfc11fba4daa8261370fffbdab4e441d97f959d6160acb4f9c777c5fb352d622946972021-10-17 7:20:442 hrs ago0x16e75b7b8bea3787da601ba8291fc601f31c800cOUT 0xe1b8800c33672a495ae2cbc882c14e7c9438166c9 ETH0.000752673876 ETH
0x62465ccc3e61bd005b87859f3b9710eea1e354a467c0b273173bd238e2976ef022940422021-10-17 6:52:512 hrs 28 mins ago0x16e75b7b8bea3787da601ba8291fc601f31c800cOUT 0xba12222222228d8ba445958a75a0704d566bf2c80 ETH0.000886099584 ETH
0xd4fb05349c40d47bf0c36ed02279b4d979c2ce6e55e107cc42222a8e87a61f5222927342021-10-17 5:54:163 hrs 26 mins ago0x16e75b7b8bea3787da601ba8291fc601f31c800cOUT Uniswap V3: Router0 ETH0.000940790487 ETH
0x77953133caa16293f3080281484503e0b637d0bf6c5efba12d55a569ff17ea2022914372021-10-17 4:52:424 hrs 28 mins ago0x16e75b7b8bea3787da601ba8291fc601f31c800cOUT SushiSwap: Router0 ETH0.000951914076 ETH
0x74159bb7034a1d5e916d3a953de88c4047ecb6b6a361405cadbb7559feaf929222910082021-10-17 4:27:014 hrs 54 mins ago0x16e75b7b8bea3787da601ba8291fc601f31c800cOUT0x11cdb42b0eb46d95f990bedd4695a6e3fa0349780 ETH0.000824204539 ETH
0x71f774c65de971d8e27c1d0385c1141b625f7738cd956ce91e6f01c73a9fd05522908372021-10-17 4:15:235 hrs 5 mins ago0x16e75b7b8bea3787da601ba8291fc601f31c800cOUT 0x0cae51e1032e8461f4806e26332c030e34de3adb0 ETH0.000678104647 ETH
0x9843979fcd142cc0986214626d33a06f50a67771f235d055249d1e9457c097a622908212021-10-17 4:15:105 hrs 6 mins ago0x16e75b7b8bea3787da601ba8291fc601f31c800cOUT 0xba12222222228d8ba445958a75a0704d566bf2c87.97345914 ETH0.000919452116 ETH
0xc84d4bfa21a9002cc23f6536f34f7ce675212d9dc60b019cd630de9816c0b17d22894302021-10-17 3:00:366 hrs 20 mins ago0x16e75b7b8bea3787da601ba8291fc601f31c800cOUT 0xba12222222228d8ba445958a75a0704d566bf2c80 ETH0.000922999227 ETH
0xfb932925387aa546f704db9deaee4fefcf2cb322f207fb7088137f84f776fba522889912021-10-17 2:34:036 hrs 47 mins ago0x16e75b7b8bea3787da601ba8291fc601f31c800cOUT 0xba12222222228d8ba445958a75a0704d566bf2c83 ETH0.00092293716 ETH
0xed8315d86ad2c36718a23564c259e8672d2b94aaf1cf57bddd5d76d5d652f84222889342021-10-17 2:29:406 hrs 51 mins ago0x16e75b7b8bea3787da601ba8291fc601f31c800cOUT SushiSwap: Router0 ETH0.000960525356 ETH
0x6207d4fbe92ba3508a3015d0c33ea07a8ecddb919e1779bdf0828573077dd23f22888802021-10-17 2:27:556 hrs 53 mins ago0x16e75b7b8bea3787da601ba8291fc601f31c800cOUT 0xba12222222228d8ba445958a75a0704d566bf2c82 ETH0.00092293716 ETH
0x5faee33bfa1a4084472c37d4e06b5f08793b4c9442d71b6852efa77f0fee252922886342021-10-17 2:11:547 hrs 9 mins ago0x16e75b7b8bea3787da601ba8291fc601f31c800cOUT 0x0cae51e1032e8461f4806e26332c030e34de3adb0 ETH0.000685153662 ETH
0x80bb62abb7327ee608d2a1d5db21326d15d92fa5d53c01f0e379d3f3004c5dd922885982021-10-17 2:10:547 hrs 10 mins ago0x16e75b7b8bea3787da601ba8291fc601f31c800cOUT 0xba12222222228d8ba445958a75a0704d566bf2c82 ETH0.000921377614 ETH
0xcb73c63a47b6825174bea714bfa5ef20014e732e237d00792d51d45280b2047e22885862021-10-17 2:10:547 hrs 10 mins ago0x16e75b7b8bea3787da601ba8291fc601f31c800cOUT 0xba12222222228d8ba445958a75a0704d566bf2c85.91524983 ETH0.000930645721 ETH
0xe44fa516f1209c235bbf0e511888814fb0591dc8248661c68cefd8b593ec07e322881282021-10-17 1:48:257 hrs 32 mins ago0x16e75b7b8bea3787da601ba8291fc601f31c800cOUT 0x88cbf433471a0cd8240d2a12354362988b4593e50 ETH0.000788151858 ETH
0xdacdfdd45a4815476f95c0380c39a2c9861532606fe2433426be0f424221ce1722880192021-10-17 1:39:067 hrs 42 mins ago0x16e75b7b8bea3787da601ba8291fc601f31c800cOUT 0x3b6067d4caa8a14c63fdbe6318f27a0bbc9f92370 ETH0.001339918624 ETH
0x30ca6f280fae1ba7caf94410b848aeff2f1be2c3fb3b7a1281fb57d88678930d22879312021-10-17 1:30:227 hrs 50 mins ago0x16e75b7b8bea3787da601ba8291fc601f31c800cOUT 0xba12222222228d8ba445958a75a0704d566bf2c83 ETH0.000944221124 ETH
0xb358fb0102e34198c701fa2fb126e026926583d3f5c719a2a8fb4d5f1081436122878212021-10-17 1:18:498 hrs 2 mins ago0x16e75b7b8bea3787da601ba8291fc601f31c800cOUT 0x88cbf433471a0cd8240d2a12354362988b4593e52.6 ETH0.000785002496 ETH
0xead6a325869094ac769adf99a0f8dcecf8a0a59d5b62f2b8d449aea70ec36ac722876422021-10-17 1:08:028 hrs 13 mins ago0x16e75b7b8bea3787da601ba8291fc601f31c800cOUT SushiSwap: Router0 ETH0.000981398932 ETH
0xe8fc025446ba1d44885d49512403a802c4d606900ee2fbfafd7bd9f67467bc2a22876102021-10-17 1:05:448 hrs 15 mins ago0x16e75b7b8bea3787da601ba8291fc601f31c800cOUT 0x88cbf433471a0cd8240d2a12354362988b4593e51.2 ETH0.000782537314 ETH
0x5185396a9610ffc585d22ee4e211b255e18b72ea66ee2eade810bfd83667738d22875342021-10-17 1:00:568 hrs 20 mins ago0x16e75b7b8bea3787da601ba8291fc601f31c800cOUT 0x0cae51e1032e8461f4806e26332c030e34de3adb0 ETH0.000703395134 ETH
0xc67b55e4344525711709bfef627a10ac5fcd4201ca580d6e2fac897e182b4bbd22874582021-10-17 0:55:438 hrs 25 mins ago0x16e75b7b8bea3787da601ba8291fc601f31c800cOUT 0x88cbf433471a0cd8240d2a12354362988b4593e51.3 ETH0.000782537314 ETH
0x021df09afed482e76288c6fb63fad555e9e3d1ffe39ba784bd03e2da4020362222874032021-10-17 0:52:578 hrs 28 mins ago0x16e75b7b8bea3787da601ba8291fc601f31c800cOUT 0x0cae51e1032e8461f4806e26332c030e34de3adb0 ETH0.000702508205 ETH
[ Download CSV Export 
Parent Txn Hash Block From To Value
Loading

Contract Name:
0 ETH

Compiler Version
0

Optimization Enabled:
0 ETH

Other Settings:
-NA-
Block Transaction Gas Used Reward
Age Block Fee Address BC Fee Address Voting Power Jailed Incoming
Block Uncle Number Difficulty Gas Used Reward
Loading
Loading
Make sure to use the "Vote Down" button for any spammy posts, and the "Vote Up" for interesting conversations.